Temp
-6 -6 -6 -6 -6 -6 -6 -6 -6 -6 -6 -6 -6 -6 -6 -6 -6 -6 -6 -6 -6 -6 -7 -7 -7 -7 -7 -7 -7 -7 -7 -6 -6 -7 -7 -6 -6 -6 -7 -7 -7 -7
-6 -6 -6 -6 -6 -6 -6 -6 -6 -6 -6 -6 -6 -6 -6 -6 -6 -6 -6 -6 -6 -6 -6 -7 -7 -7 -7 -7 -7 -6 -6 -6 -6 -7 -6 -6 -6 -6 -6 -6 -6 -7
-6 -6 -6 -6 -6 -6 -6 -6 -6 -6 -6 -6 -6 -6 -6 -6 -6 -6 -6 -6 -6 -6 -6 -6 -6 -6 -6 -6 -6 -6 -6 -6 -6 -7 -6 -6 -6 -6 -6 -6 -6 -6
-6 -6 -6 -6 -6 -6 -6 -6 -6 -6 -6 -6 -6 -6 -6 -6 -6 -6 -6 -6 -6 -6 -6 -6 -6 -6 -6 -6 -6 -6 -6 -6 -6 -6 -7 -7 -7 -7 -6 -6 -6 -6
-5 -6 -6 -6 -6 -6 -6 -6 -6 -6 -6 -6 -6 -6 -6 -6 -6 -6 -6 -6 -6 -6 -6 -6 -6 -6 -6 -6 -6 -6 -6 -6 -6 -6 -6 -7 -7 -7 -7 -7 -6 -6
-5 -5 -5 -6 -6 -6 -6 -6 -6 -6 -6 -6 -6 -6 -6 -6 -6 -6 -6 -6 -6 -6 -6 -6 -6 -6 -6 -6 -6 -6 -6 -6 -6 -6 -6 -7 -7 -7 -7 -7 -7 -6
-5 -5 -5 -5 -6 -6 -6 -6 -6 -6 -6 -6 -6 -6 -6 -6 -6 -6 -6 -6 -6 -6 -6 -6 -6 -7 -6 -6 -6 -6 -6 -6 -6 -6 -6 -7 -7 -7 -7 -7 -6 -6
-5 -5 -5 -5 -5 -6 -6 -6 -6 -6 -6 -6 -6 -6 -6 -6 -6 -6 -6 -6 -6 -6 -6 -6 -6 -7 -6 -6 -6 -6 -6 -6 -6 -6 -6 -7 -7 -6 -6 -6 -6 -6
-5 -5 -5 -5 -6 -6 -6 -6 -6 -6 -6 -6 -6 -6 -6 -6 -6 -6 -6 -6 -6 -6 -6 -6 -6 -6 -6 -6 -6 -6 -6 -6 -6 -6 -6 -6 -6 -6 -6 -6 -6 -6
-6 -6 -6 -6 -6 -6 -6 -6 -6 -6 -6 -6 -6 -6 -6 -6 -6 -6 -6 -6 -6 -6 -6 -6 -6 -6 -6 -6 -6 -6 -7 -6 -6 -6 -6 -6 -6 -6 -7 -6 -6 -6
-6 -6 -6 -6 -6 -6 -6 -6 -6 -6 -6 -6 -6 -6 -6 -6 -6 -6 -6 -6 -6 -6 -6 -6 -6 -6 -6 -6 -6 -6 -7 -7 -7 -6 -6 -6 -6 -6 -7 -7 -7 -7
-6 -6 -6 -6 -6 -6 -6 -6 -6 -6 -6 -6 -6 -6 -6 -6 -6 -6 -6 -6 -6 -6 -6 -6 -6 -6 -6 -6 -6 -6 -6 -6 -7 -7 -7 -6 -6 -6 -6 -6 -7 -7
-6 -6 -6 -6 -6 -6 -6 -6 -6 -6 -6 -6 -6 -6 -6 -6 -6 -6 -6 -6 -6 -6 -6 -6 -6 -6 -6 -6 -6 -6 -6 -6 -6 -6 -7 -6 -6 -6 -6 -6 -6 -6
-6 -6 -6 -6 -6 -6 -6 -6 -6 -6 -6 -6 -6 -6 -6 -6 -6 -6 -6 -6 -6 -6 -6 -6 -6 -6 -6 -6 -6 -6 -6 -6 -6 -6 -6 -6 -7 -7 -6 -6 -6 -6
-6 -6 -6 -5 -5 -6 -6 -6 -6 -6 -6 -6 -6 -6 -6 -6 -6 -6 -6 -6 -6 -6 -6 -6 -6 -6 -6 -6 -6 -6 -6 -6 -6 -6 -6 -6 -6 -6 -6 -7 -7 -7
-6 -6 -6 -6 -5 -6 -6 -5 -6 -6 -6 -6 -6 -6 -6 -6 -6 -6 -6 -6 -6 -6 -6 -6 -6 -6 -6 -6 -6 -6 -6 -6 -6 -6 -6 -6 -6 -6 -6 -6 -7 -7
-6 -7 -6 -6 -6 -6 -6 -5 -5 -6 -6 -5 -6 -6 -6 -6 -6 -6 -6 -6 -5 -6 -6 -6 -6 -6 -7 -7 -7 -7 -7 -6 -6 -6 -6 -6 -6 -6 -6 -6 -6 -6
-7 -7 -7 -7 -7 -6 -6 -6 -6 -5 -6 -6 -6 -6 -6 -6 -6 -6 -6 -6 -6 -5 -6 -6 -6 -7 -7 -7 -7 -7 -6 -7 -7 -7 -7 -6 -6 -6 -6 -6 -6 -6
-7 -7 -7 -7 -7 -6 -6 -6 -6 -6 -6 -6 -6 -6 -6 -6 -6 -6 -6 -6 -6 -6 -6 -6 -7 -7 -7 -6 -6 -6 -6 -6 -6 -6 -7 -7 -7 -6 -6 -6 -6 -6
-7 -7 -8 -7 -7 -6 -6 -6 -6 -6 -6 -6 -6 -6 -6 -6 -6 -6 -6 -6 -6 -6 -6 -6 -6 -6 -6 -6 -6 -6 -6 -6 -6 -6 -6 -7 -7 -7 -7 -6 -6 -6
-7 -7 -7 -7 -7 -7 -7 -6 -6 -6 -6 -6 -6 -6 -6 -6 -6 -6 -6 -6 -6 -6 -6 -6 -6 -6 -6 -6 -6 -6 -7 -6 -6 -6 -6 -6 -6 -6 -7 -7 -6 -6
-7 -7 -7 -7 -7 -7 -7 -6 -6 -6 -6 -6 -6 -6 -6 -6 -6 -6 -6 -6 -6 -6 -6 -6 -6 -6 -6 -6 -6 -7 -7 -7 -6 -7 -7 -7 -6 -6 -6 -6 -6 -7
-7 -7 -7 -7 -7 -7 -7 -7 -7 -6 -6 -6 -6 -6 -6 -6 -6 -6 -6 -6 -6 -6 -6 -6 -6 -6 -6 -6 -6 -6 -7 -6 -6 -6 -7 -6 -6 -6 -6 -6 -6 -7
-7 -7 -7 -7 -7 -7 -7 -7 -7 -6 -6 -6 -6 -6 -6 -6 -6 -6 -6 -6 -6 -6 -6 -6 -6 -6 -6 -7 -6 -6 -6 -6 -6 -6 -6 -6 -6 -7 -7 -7 -6 -7
-6 -6 -6 -7 -7 -7 -7 -6 -7 -7 -6 -6 -6 -6 -6 -6 -6 -6 -6 -6 -6 -6 -6 -6 -6 -6 -6 -6 -6 -6 -6 -6 -6 -6 -6 -6 -6 -7 -7 -7 -7 -7
-7 -6 -7 -7 -7 -6 -6 -6 -7 -7 -6 -6 -6 -6 -6 -6 -6 -6 -6 -6 -6 -6 -6 -6 -6 -6 -6 -6 -6 -6 -6 -6 -6 -6 -6 -6 -6 -6 -7 -7 -7 -7
Height
5947 5948 5949 5949 5950 5951 5952 5953 5954 5954 5955 5955 5956 5957 5958 5958 5959 5959 5960 5960 5961 5961 5961 5961 5961 5962 5962 5962 5962 5962 5962 5962 5962 5962 5963 5963 5963 5963 5964 5964 5965 5965
5946 5947 5948 5949 5950 5951 5952 5952 5953 5954 5954 5955 5956 5956 5957 5958 5958 5958 5959 5960 5960 5961 5961 5961 5961 5961 5962 5962 5962 5962 5962 5962 5962 5963 5963 5963 5963 5963 5964 5964 5964 5965
5946 5947 5947 5948 5950 5951 5951 5952 5952 5953 5954 5954 5955 5955 5956 5957 5957 5958 5958 5959 5959 5960 5960 5960 5961 5961 5961 5961 5961 5961 5962 5962 5962 5963 5963 5963 5963 5963 5963 5964 5964 5964
5945 5946 5947 5947 5949 5950 5950 5951 5952 5952 5953 5954 5954 5955 5955 5956 5957 5957 5957 5958 5958 5959 5959 5960 5960 5960 5961 5961 5961 5961 5962 5962 5962 5962 5963 5963 5963 5963 5963 5963 5963 5963
5944 5945 5946 5946 5947 5948 5949 5950 5951 5951 5952 5953 5953 5954 5955 5955 5956 5957 5957 5958 5958 5958 5959 5959 5959 5960 5960 5960 5961 5961 5961 5961 5962 5962 5962 5962 5962 5962 5962 5962 5962 5962
5942 5943 5944 5945 5946 5947 5948 5948 5949 5950 5951 5952 5952 5953 5954 5954 5955 5956 5957 5957 5957 5957 5958 5958 5958 5959 5959 5960 5960 5960 5961 5961 5961 5961 5961 5962 5962 5962 5962 5962 5962 5962
5940 5941 5942 5943 5944 5945 5946 5947 5948 5949 5949 5950 5951 5952 5952 5953 5954 5955 5956 5956 5956 5957 5957 5957 5958 5958 5958 5959 5959 5960 5960 5960 5960 5960 5960 5960 5961 5961 5961 5961 5961 5961
5938 5939 5940 5941 5942 5943 5944 5945 5946 5947 5948 5949 5949 5950 5951 5952 5953 5953 5954 5955 5955 5956 5957 5957 5957 5957 5958 5958 5958 5958 5958 5959 5959 5959 5959 5959 5959 5960 5960 5960 5960 5960
5935 5937 5938 5939 5940 5941 5942 5943 5944 5946 5947 5947 5948 5949 5950 5950 5951 5952 5953 5953 5954 5955 5956 5956 5956 5956 5957 5957 5957 5957 5957 5957 5957 5957 5958 5958 5958 5959 5959 5959 5959 5959
5933 5934 5935 5936 5938 5939 5940 5941 5942 5943 5945 5946 5947 5947 5948 5949 5949 5950 5951 5952 5952 5953 5954 5955 5956 5956 5956 5956 5956 5956 5956 5956 5956 5957 5957 5957 5957 5958 5958 5958 5958 5958
5930 5931 5932 5933 5935 5936 5938 5939 5940 5941 5942 5944 5945 5945 5946 5947 5947 5948 5949 5950 5951 5952 5953 5954 5954 5955 5955 5956 5956 5956 5956 5956 5956 5956 5956 5956 5956 5957 5957 5957 5957 5957
5928 5929 5930 5931 5932 5933 5934 5936 5938 5939 5940 5941 5942 5943 5944 5945 5946 5946 5947 5948 5949 5950 5951 5951 5952 5953 5954 5954 5955 5955 5955 5955 5956 5956 5956 5955 5955 5955 5955 5955 5955 5955
5925 5926 5927 5928 5929 5930 5932 5933 5935 5937 5938 5939 5940 5941 5942 5943 5944 5944 5945 5946 5947 5948 5948 5949 5950 5951 5952 5952 5953 5953 5954 5954 5955 5955 5954 5954 5954 5953 5953 5953 5954 5954
5922 5923 5925 5926 5927 5928 5930 5931 5932 5934 5935 5937 5938 5939 5940 5941 5941 5942 5943 5944 5945 5946 5946 5947 5948 5949 5949 5950 5951 5951 5952 5953 5953 5953 5953 5953 5952 5952 5952 5952 5952 5952
5918 5920 5922 5923 5925 5926 5927 5928 5930 5931 5932 5935 5936 5936 5937 5938 5939 5940 5941 5942 5943 5944 5944 5945 5945 5946 5947 5947 5947 5948 5949 5950 5950 5951 5951 5951 5951 5951 5951 5951 5950 5950
5916 5918 5919 5922 5923 5925 5925 5926 5927 5928 5929 5931 5933 5933 5934 5935 5936 5937 5938 5939 5940 5941 5942 5942 5944 5946 5946 5945 5945 5946 5947 5947 5948 5948 5948 5948 5949 5949 5949 5949 5949 5949
5914 5916 5918 5920 5922 5923 5924 5924 5925 5925 5926 5928 5930 5931 5932 5933 5933 5934 5935 5936 5937 5937 5938 5939 5941 5943 5943 5942 5943 5943 5944 5944 5945 5946 5946 5946 5946 5946 5947 5947 5948 5948
5910 5912 5915 5917 5919 5921 5922 5922 5922 5923 5924 5925 5927 5928 5929 5930 5931 5932 5932 5933 5934 5935 5935 5937 5939 5938 5937 5938 5939 5940 5940 5941 5941 5942 5943 5943 5943 5943 5944 5945 5945 5946
5908 5909 5911 5913 5914 5916 5918 5919 5920 5920 5921 5923 5925 5925 5926 5927 5928 5929 5930 5930 5931 5932 5933 5934 5935 5935 5935 5935 5936 5936 5936 5937 5938 5938 5939 5939 5940 5940 5941 5942 5943 5943
5905 5906 5908 5909 5909 5912 5914 5915 5916 5917 5918 5920 5921 5922 5923 5924 5925 5927 5928 5928 5929 5930 5931 5931 5931 5931 5932 5932 5932 5932 5933 5934 5935 5935 5935 5936 5936 5937 5938 5939 5940 5940
5902 5903 5905 5906 5907 5908 5910 5912 5913 5914 5915 5916 5916 5917 5919 5921 5922 5923 5924 5925 5926 5926 5927 5928 5928 5928 5929 5929 5929 5929 5930 5930 5931 5932 5932 5932 5932 5932 5934 5936 5936 5936
5899 5900 5901 5902 5903 5904 5906 5908 5909 5910 5911 5912 5913 5914 5915 5916 5918 5919 5920 5921 5922 5923 5924 5924 5924 5924 5925 5925 5925 5926 5926 5926 5927 5928 5929 5929 5929 5929 5930 5931 5932 5932
5895 5897 5898 5899 5899 5900 5902 5903 5905 5906 5907 5908 5909 5910 5911 5912 5912 5914 5915 5916 5917 5919 5920 5921 5921 5921 5921 5921 5921 5922 5922 5922 5922 5923 5924 5925 5926 5926 5927 5928 5928 5928
5891 5893 5894 5895 5896 5897 5898 5899 5901 5902 5903 5904 5905 5906 5907 5908 5908 5909 5910 5911 5912 5913 5914 5916 5917 5917 5917 5917 5917 5917 5918 5918 5919 5919 5919 5920 5921 5922 5922 5923 5924 5924
5889 5890 5891 5892 5893 5895 5896 5897 5898 5899 5900 5901 5901 5902 5903 5903 5904 5905 5906 5906 5907 5907 5908 5910 5911 5912 5912 5913 5913 5913 5913 5914 5915 5915 5916 5916 5916 5917 5917 5918 5919 5920
5886 5887 5887 5889 5890 5892 5893 5894 5895 5896 5897 5897 5897 5898 5899 5899 5900 5901 5901 5902 5902 5902 5903 5905 5906 5907 5908 5908 5909 5909 5909 5910 5911 5911 5912 5912 5912 5912 5912 5913 5913 5914
Wind_Speed
8 7 6 5 5 5 5 5 5 5 5 6 6 6 6 6 6 6 5 4 3 3 3 3 3 3 3 3 4 3 3 3 3 4 3 3 3 3 4 4 4 3
9 8 8 7 5 4 5 5 4 4 5 5 5 5 6 6 6 6 6 5 4 3 3 3 2 2 2 3 3 3 3 2 2 2 1 1 2 1 1 2 2 1
10 9 8 8 7 6 6 6 4 4 5 6 6 6 6 6 6 6 6 5 5 4 3 3 2 2 2 2 2 2 2 2 2 1 1 1 0 0 1 1 1 1
12 11 10 9 8 8 8 7 6 5 5 6 7 7 7 6 6 6 6 5 5 5 4 4 3 2 2 2 2 2 2 2 2 2 2 2 1 2 2 2 3 3
13 13 12 11 10 10 9 9 8 8 7 7 8 7 7 7 7 6 6 6 5 5 5 5 5 4 4 4 3 3 3 2 2 2 2 2 2 2 3 3 3 4
14 14 13 12 12 12 11 11 10 10 9 9 9 8 8 8 7 6 6 6 6 6 6 6 6 6 5 5 5 4 4 3 3 3 2 2 3 3 3 3 3 4
15 15 14 13 13 13 13 12 12 12 12 12 11 10 9 9 8 7 7 7 7 6 6 7 7 7 6 6 6 5 5 4 4 4 3 3 3 4 4 4 4 5
17 16 15 15 14 14 14 14 14 14 14 13 12 12 11 10 9 9 8 8 8 7 7 7 7 7 7 7 7 6 6 5 5 5 4 4 4 4 5 5 5 5
20 19 18 17 16 16 15 15 16 16 15 15 14 14 13 12 11 11 10 10 10 9 8 8 8 8 8 8 8 7 7 7 6 6 5 5 5 5 5 5 5 5
21 21 20 19 18 18 17 17 17 17 16 16 16 16 15 14 14 13 12 12 11 10 9 9 8 8 8 8 9 9 9 8 8 8 7 7 7 6 6 6 5 5
21 21 21 20 20 19 19 18 18 18 18 17 18 18 17 16 16 15 14 14 13 11 10 10 10 10 9 9 10 10 10 10 10 10 9 9 8 8 7 7 7 7
20 21 22 21 20 20 20 20 19 19 19 19 19 19 19 18 18 17 17 15 14 13 12 12 12 12 11 11 11 12 12 12 12 12 11 11 10 10 9 9 9 9
20 21 22 22 21 21 20 20 20 20 20 20 20 21 20 20 19 19 19 17 16 15 15 14 14 14 13 13 13 13 13 13 13 13 13 13 13 12 11 11 11 11
21 22 23 22 21 20 20 20 20 21 21 21 21 22 21 21 21 20 20 18 18 18 17 17 16 16 15 15 15 15 15 15 15 15 16 16 15 15 14 14 13 13
24 23 23 22 21 20 20 20 20 20 20 19 20 21 22 22 22 21 20 19 19 19 18 18 18 17 17 17 17 17 17 17 17 17 17 18 18 17 17 16 16 15
25 24 23 22 22 21 20 21 20 20 20 19 19 21 22 22 22 22 21 21 21 20 20 20 19 17 18 19 18 18 18 19 19 19 19 19 19 19 19 19 18 18
28 26 23 22 22 21 21 21 21 21 21 20 19 20 21 22 22 22 22 22 21 21 22 21 18 18 21 22 21 20 20 21 21 21 21 21 21 21 22 22 21 20
30 27 22 21 23 23 22 22 22 23 23 21 21 21 22 22 22 22 22 22 21 22 22 21 19 21 24 24 23 23 24 24 24 23 23 23 23 24 24 23 23 22
29 26 23 23 26 26 25 24 24 24 24 23 23 23 24 24 23 22 22 23 23 24 24 23 22 23 24 24 25 26 26 27 27 26 26 25 25 25 25 24 24 23
27 27 26 27 28 28 28 28 28 27 26 26 26 26 26 26 25 24 24 24 25 25 25 24 25 25 26 27 27 28 29 29 30 30 29 28 28 28 27 25 25 25
25 27 28 30 31 31 31 30 30 31 30 30 30 30 29 28 28 27 26 26 27 27 27 27 27 28 29 30 30 30 31 32 32 32 31 31 32 31 29 28 27 27
19 21 24 27 30 32 33 33 33 34 34 34 34 33 32 32 32 32 31 30 30 30 30 30 31 33 33 33 32 31 31 34 35 33 32 33 34 34 32 30 30 29
16 17 19 21 23 27 30 32 34 35 36 36 36 36 36 36 36 36 35 35 34 33 32 32 33 35 35 34 33 32 32 34 35 33 32 33 34 35 34 33 32 31
17 17 17 18 19 20 22 24 26 28 30 32 33 34 36 38 39 39 39 38 37 37 37 36 35 34 34 33 33 33 33 32 31 31 32 32 33 34 35 35 34 33
21 21 21 21 21 21 20 20 20 21 23 25 27 29 32 35 38 39 40 40 40 41 41 37 34 32 31 31 31 32 32 30 27 27 29 31 32 33 34 34 35 35
23 24 25 24 24 24 24 23 23 23 24 24 25 25 26 28 29 31 33 34 34 34 33 31 29 28 28 29 30 32 33 32 31 31 31 32 33 33 33 32 32 33
Wind_Direction
192 179 174 184 192 182 173 177 186 187 182 176 167 162 161 157 154 152 151 156 162 161 157 156 151 150 163 165 151 133 121 108 101 101 98 91 84 79 81 80 77 73
202 194 183 184 193 193 187 189 192 184 174 171 173 169 162 159 160 158 155 155 157 156 170 187 183 175 183 180 163 153 148 140 129 121 106 79 73 62 63 77 71 51
208 208 201 194 193 196 199 203 201 192 178 175 179 177 170 163 162 164 161 157 154 153 170 190 200 204 202 191 184 174 167 163 161 162 203 235 189 279 292 285 284 292
218 217 216 209 205 206 206 205 206 208 199 192 191 185 177 171 172 176 172 165 160 160 170 181 189 205 205 205 210 202 183 172 173 187 205 220 225 243 256 267 278 283
228 227 226 221 216 217 216 211 210 213 209 207 206 196 186 184 186 189 179 173 175 175 177 178 184 199 206 208 211 208 208 200 193 199 203 215 232 237 242 247 259 270
232 231 231 227 224 224 224 220 216 217 216 214 213 205 198 194 192 193 186 179 184 187 186 182 184 197 204 210 215 212 215 216 208 212 215 225 242 246 246 247 253 261
234 233 232 229 228 227 228 227 222 220 221 220 217 211 207 202 196 199 199 194 195 197 194 189 191 201 204 206 213 214 215 217 214 218 222 226 240 248 248 250 253 259
237 236 234 231 230 228 227 228 227 225 224 224 221 215 213 210 205 208 210 208 208 208 206 200 198 207 210 210 213 214 217 221 219 222 226 229 238 247 249 246 246 252
238 237 235 232 231 230 228 229 229 228 226 226 225 222 219 215 213 215 216 217 218 216 215 211 210 215 218 220 221 221 225 228 227 227 230 235 239 244 247 244 244 250
236 236 234 232 232 232 231 230 231 230 228 226 226 226 224 221 222 222 220 222 223 223 223 223 223 226 228 230 232 231 233 236 235 233 232 235 238 240 244 248 251 251
234 234 233 231 231 233 234 233 233 233 231 229 227 228 227 225 225 225 224 226 228 229 231 233 233 237 239 241 243 242 240 241 241 239 236 237 241 243 245 250 256 257
235 235 234 232 230 231 233 235 235 235 235 234 231 231 231 228 226 227 227 227 230 232 234 235 236 238 240 243 246 249 248 247 246 245 244 243 245 247 248 249 253 257
237 236 235 233 231 231 233 235 237 238 237 237 236 235 234 231 229 230 231 230 230 233 235 236 237 239 241 243 247 250 252 252 251 250 249 248 247 248 251 252 253 256
237 238 237 236 234 233 235 237 238 239 238 239 242 242 240 238 235 233 234 234 233 234 237 238 238 241 243 245 248 251 253 254 254 255 255 254 251 249 248 250 253 255
236 237 238 239 237 235 236 238 240 242 241 239 242 245 245 243 242 240 239 239 239 238 240 241 243 245 247 248 249 251 253 254 253 255 256 258 258 257 254 253 252 251
237 240 241 241 240 238 239 241 241 243 244 240 240 245 245 244 244 243 242 240 240 239 239 241 246 251 253 253 253 254 256 257 257 255 256 258 260 261 262 261 258 253
232 237 240 243 246 244 244 245 243 243 246 245 244 247 248 248 247 247 246 244 243 243 241 239 242 245 246 249 252 254 256 259 259 259 259 258 259 261 262 262 262 261
229 230 231 238 245 244 245 247 246 244 245 246 247 247 249 251 249 248 249 249 248 248 248 245 242 240 240 243 248 251 252 253 254 256 259 259 260 262 262 262 263 264
233 233 233 236 239 239 243 248 248 247 245 244 246 247 248 250 249 246 247 248 249 250 253 253 250 246 245 248 253 256 255 252 251 252 254 256 259 261 261 263 264 263
234 237 238 240 240 240 241 245 246 247 246 244 244 244 245 246 247 248 247 248 250 252 253 254 254 254 255 259 262 263 262 258 255 253 252 253 256 257 257 260 262 262
235 235 236 239 242 244 244 244 245 246 246 245 246 246 246 246 246 246 248 250 253 254 255 255 255 256 258 262 264 266 266 264 261 257 253 252 253 254 255 258 260 259
237 236 235 236 240 243 245 245 246 247 247 246 247 248 249 249 248 248 247 246 249 253 256 258 258 257 258 260 262 263 265 266 266 263 257 254 255 255 255 257 259 259
242 242 240 237 238 241 244 245 246 248 249 249 249 249 249 250 251 252 252 252 252 254 256 258 258 257 257 260 262 263 263 264 266 266 262 259 258 257 256 257 258 259
246 245 242 240 240 241 243 245 247 248 250 252 253 253 252 252 253 255 257 259 261 262 261 260 257 255 256 259 263 264 262 262 263 264 264 265 264 261 259 257 256 257
253 252 249 246 245 245 246 248 250 251 252 255 256 256 255 255 254 255 257 260 262 262 260 257 255 253 254 257 259 259 259 260 260 260 264 268 270 267 263 259 256 255
255 254 251 249 249 251 251 251 252 254 255 255 256 256 255 254 253 254 255 257 259 257 252 249 250 253 255 258 260 259 257 256 257 261 267 271 273 271 267 263 259 257